Regional Weather Roundup
Issued by NWS Charleston, SC

Current Version | Previous Version | Graphics & Text | Print | Product List | Glossary On
Versions: 1 2 3 4 5 6 7 8 9 10 11 12 13 14 15 16 17 18 19 20 21 22 23 24 25 26 27 28 29 30 31 32 33 34 35 36 37 38 39 40 41 42 43 44 45 46 47 48 49 50
000 ASUS42 KCHS 121813 RWRCHS REGIONAL WEATHER ROUNDUP NATIONAL WEATHER SERVICE CHARLESTON SC 100 PM EST FRI FEB 12 2016 NOTE: "FAIR" INDICATES FEW OR NO CLOUDS BELOW 12,000 FEET WITH NO SIGNIFICANT WEATHER AND/OR OBSTRUCTIONS TO VISIBILITY. NOT ALL STATIONS ARE QUALITY CONTROLLED BY THE NATIONAL WEATHER SERVICE. USE DATA WITH CAUTION...ESPECIALLY DEWPOINT OBSERVATIONS. SCZ027-030-031-034>040-042>050-121900- ...SOUTHEAST SOUTH CAROLINA... CITY SKY/WX TMP DP RH WIND PRES REMARKS N CHARLESTON CLOUDY 53 47 79 CALM 30.06F 6HR MIN TEMP: 43; 6HR MAX TEMP: 54; WATERFRONT PRK N/A 50 48 93 E5 29.94F MOUNT PLEASANT CLOUDY 50 46 87 CALM 30.07F JOHNS ISLAND CLOUDY 52 52 100 CALM 30.06F FOG PINOPOLIS N/A 48 41 76 VRB3 30.00F MONCKS CORNER CLOUDY 46 37 71 CALM 30.07F SUMMERVILLE CLOUDY 50 45 81 CALM 30.08 BEAUFORT MCAS CLOUDY 58 52 80 VRB3 30.05F 6HR MIN TEMP: 46; 6HR MAX TEMP: 58; 6HR PCP: TRACE; BEAUFORT ARPT CLOUDY 59 54 82 CALM 30.06F HILTON HEAD IS PTSUNNY 61 55 82 S7 30.07F WALTERBORO CLOUDY 52 46 82 NW3 30.08S ALLENDALE CLOUDY 52 43 71 CALM 30.07F ...SOUTHERN MIDLANDS AND PEE DEE... CITY SKY/WX TMP DP RH WIND PRES REMARKS GEORGETOWN CLOUDY 46 36 66 E5 30.07F KINGSTREE CLOUDY 43 28 56 NW5 30.10F ORANGEBURG CLOUDY 50 37 61 VRB3 30.08F 6HR MIN TEMP: 41; 6HR MAX TEMP: 50; BARNWELL FAIR 55 43 62 CALM 30.07F AIKEN FAIR 46 34 61 N5 30.10F MANNING CLOUDY 45 32 61 N5 30.08F COLUMBIA CLOUDY 44 24 45 N7 30.09F 6HR MIN TEMP: 37; 6HR MAX TEMP: 44; SUMTER NOT AVBL FLORENCE CLOUDY 39 19 44 N7 30.12F WCI 34 6HR MIN TEMP: 32; 6HR MAX TEMP: 39; MYRTLE BEACH PTSUNNY 46 28 49 N7 30.08F N MYRTLE BEACH CLOUDY 43 30 60 N7 30.06F 6HR MIN TEMP: 39; 6HR MAX TEMP: 44; $$ GAZ063-065-086>088-099>101-113>116-118-119-134>141-150-121900- ...SOUTHEAST GEORGIA... CITY SKY/WX TMP DP RH WIND PRES REMARKS SAVANNAH ARPT CLOUDY 65 53 65 W17 30.06F 6HR MIN TEMP: 47; 6HR MAX TEMP: 66; HUNTER AAF NOT AVBL FORT STEWART NOT AVBL STATESBORO CLOUDY 62 55 77 W10 30.08F SYLVANIA CLOUDY 49 49 100 NW5 30.09F FOG CLAXTON CLOUDY 65 58 77 SW7 30.07F ...CSRA...CENTRAL AND FAR SOUTHEAST GEORGIA... CITY SKY/WX TMP DP RH WIND PRES REMARKS THOMSON CLOUDY 49 38 66 CALM 30.13F AUGUSTA-BUSH CLOUDY 50 36 58 N3 30.08F 6HR MIN TEMP: 37; 6HR MAX TEMP: 51; AUGUSTA-DANIEL CLOUDY 48 34 58 CALM 30.08F SWAINSBORO CLOUDY 50 48 93 W6 30.09F VIDALIA CLOUDY 61 52 72 W6 30.08F EASTMAN CLOUDY 59 53 79 W6 30.13F HAZLEHURST CLOUDY 67 56 67 W12G17 30.08F ALMA CLOUDY 65 54 67 SW16 30.10F 6HR MIN TEMP: 56; 6HR MAX TEMP: 65; WAYCROSS MOSUNNY 74 60 61 W15 30.09F JESUP CLOUDY 70 59 68 W13G20 30.09F BAXLEY CLOUDY 66 55 68 W12G18 30.09F BRUNSWICK SUNNY 72 54 53 W20G26 30.08F SAINT SIMONS SUNNY 71 54 54 W16 30.07F 6HR MIN TEMP: 53; 6HR MAX TEMP: 71; $$ SCZ027-028-034-036>038-045-046-048>050-GAZ119-141-121900- ...LAKE AND SUPPLEMENTAL COASTAL OBSERVATIONS... STATION/POSITION TIME TEMP WIND PRES WAVE SWELL AIR SEA DIR/SP/G HT/PER HT/PER/DIR (UTC) (F) (DEG/KT/KT) (MB) (FT/S) (FT/S/D) WINYAH BAY NOT AVBL LAKE MURRAY 1700 38 10/ 2/ 6 1020.3F ACE BASIN NERRS NOT AVBL FORT PULASKI 1700 58 51 200/ 7/ 11 1019.3F SAPELO ISLAND 1700 62 240/ 12 1020.0F $$ ANZ835-935-AMZ111-154-330-350-352-354-370-450-454-472-121900- ...C-MAN AND BUOY OBSERVATIONS... STATION/POSITION TIME TEMP WIND PRES WAVE SWELL AIR SEA DIR/SP/G HT/PER HT/PER/DIR (UTC) (F) (DEG/KT/KT) (MB) (FT/S) (FT/S/D) BUOY 41004 1750 59 68 270/ 17/ 21 1017.2F 5/ 6 2/10 BUOY 41008 1750 56 53 200/ 14/ 16 1018.5F 3/ 5 FOLLY BEACH CMAN 1800 48 70/ 6/ 6 1018.0F CAPERS NEARSHORE 1708 48 50/ 10/ 14 1018.7F FRIPP NEARSHORE 1700 54 240/ 12/ 14 1018.3F STATION/POSITION TIME TEMP WIND PRES WAVE SWELL AIR SEA DIR/SP/G HT/PER HT/PER/DIR (UTC) (F) (DEG/KT/KT) (MB) (FT/S) (FT/S/D) 5E ST. MARYS GA 1751 56 N/A 3/ 5 FRYING PAN BUOY 1700 56 56 300/ 2/ 6 1017.5F BUOY 41025 1750 46 59 40/ 14/ 21 1019.4F 3/ 7 2/ 50/ 7 CAPE LOOKOUT NC NOT AVBL BUOY 41002 1750 65 68 220/ 31/ 37 N/A 8/ 6 BUOY 41010 1720 68 72 1024.5F ST AUGUSTINE FL 1800 71 58 250/ 18/ 24 1021.6F $$

USA.gov is the U.S. government's official web portal to all federal, state and local government web resources and services.